Wind_Speed
11 11 11 11 11 11 11 12 12 12 13 13 13 14 15 16 17 18 19 20 21 22 23 23 24 25 25 25 26 26 26 27 27 28 29 30 30 30 30 31 32 34 35
12 13 13 13 13 13 14 14 14 15 15 16 16 17 18 19 19 20 21 22 23 24 25 25 26 27 27 27 28 28 28 28 28 29 30 30 31 31 31 32 32 34 35
14 14 15 15 16 16 17 17 18 18 19 19 20 20 21 21 22 23 24 25 25 26 26 27 28 28 29 30 30 30 30 30 30 30 30 31 32 32 32 32 33 34 35
16 17 17 18 19 19 20 20 21 21 22 22 23 23 24 24 25 25 26 26 27 27 28 29 29 30 31 31 31 32 32 31 31 31 31 32 32 33 33 33 34 34 35
19 20 20 21 21 22 22 23 23 24 24 25 25 26 26 27 27 27 28 28 29 29 30 30 31 32 32 33 33 33 33 33 33 33 33 33 33 34 34 34 34 35 35
21 22 22 23 23 24 25 25 26 26 27 27 28 28 28 28 29 29 29 30 31 31 31 32 33 33 34 34 35 35 35 35 35 35 34 34 34 35 35 35 35 35 36
23 24 25 25 26 26 27 28 28 29 29 29 30 30 30 30 30 31 31 32 32 33 33 34 34 35 35 36 36 36 36 36 36 36 36 35 35 36 35 35 35 36 36
26 26 27 28 28 29 29 29 30 30 30 30 30 31 31 32 32 32 33 33 34 34 35 36 36 37 37 37 37 38 38 38 38 37 36 36 36 36 36 35 35 35 36
28 29 30 30 30 30 31 31 32 31 31 31 32 32 32 33 33 34 34 35 35 36 37 38 38 38 39 39 39 39 39 39 39 38 38 38 38 37 37 36 36 36 36
31 32 32 32 32 32 33 33 33 32 32 33 33 33 34 35 35 36 37 37 37 38 38 39 40 40 41 41 41 40 40 40 40 40 39 39 39 39 38 37 37 37 37
32 33 33 33 33 34 34 34 34 34 34 35 35 35 36 37 38 39 39 40 40 40 40 42 42 42 43 43 42 42 42 42 41 41 41 41 40 40 39 38 37 37 37
33 33 33 34 35 35 34 35 35 36 37 37 37 37 38 39 40 41 42 42 42 42 42 44 44 44 44 44 44 44 44 43 43 42 42 42 41 40 39 38 38 37 37
34 34 34 35 35 36 36 37 38 39 39 39 40 41 42 42 43 43 44 44 44 44 45 46 46 46 46 46 45 45 45 45 44 44 43 42 42 41 40 39 38 37 37
35 35 35 36 37 37 38 38 39 40 41 42 43 44 45 45 45 45 45 45 46 46 47 48 48 48 48 47 47 47 47 46 46 45 44 43 42 41 40 39 38 38 37
36 36 36 37 38 39 39 40 41 42 43 44 45 46 46 46 46 47 48 48 49 50 50 50 50 50 50 49 49 49 48 48 47 45 44 43 41 40 39 39 39 38 37
37 38 38 39 40 41 41 42 43 44 45 46 47 48 48 48 49 50 51 51 52 53 53 53 52 52 51 51 51 50 50 49 47 45 44 42 41 40 39 38 38 38 37
38 39 40 41 42 43 43 44 45 46 48 49 50 51 52 52 53 53 54 54 55 55 55 55 54 53 53 52 52 51 49 48 46 44 43 41 40 39 38 37 37 36 35
39 41 42 43 44 45 46 47 48 49 50 51 53 54 55 55 56 56 57 57 57 57 57 56 54 54 53 52 51 49 48 46 45 43 42 40 40 38 38 37 36 36 35
41 42 43 45 46 47 48 49 50 52 53 54 55 56 57 58 58 58 59 58 57 56 56 55 54 53 51 50 49 47 45 44 43 42 40 39 38 37 37 36 35 34 34
43 44 45 46 48 49 50 51 53 54 55 56 57 58 59 59 59 59 58 57 56 56 55 54 52 51 49 48 46 44 42 41 40 39 38 37 36 35 35 34 33 33 32
43 45 46 48 49 51 52 53 54 56 57 57 58 59 59 59 59 59 58 56 55 54 52 51 49 48 46 45 44 42 41 39 38 37 36 34 33 33 33 32 31 30 30
45 47 48 49 51 52 53 55 56 57 58 58 58 58 58 57 57 56 54 53 52 51 49 48 46 44 43 42 41 39 37 36 35 34 32 32 32 31 31 30 29 28 28
47 48 50 51 53 54 55 56 56 56 56 56 57 56 55 54 53 52 51 49 47 45 44 43 42 40 39 38 37 35 34 33 32 32 31 30 30 29 28 27 27 27 27
49 50 51 53 53 54 55 55 55 55 55 54 54 53 51 50 49 47 45 42 41 41 39 38 37 36 35 34 32 31 30 30 30 29 29 28 28 27 26 26 26 26 26
50 51 51 52 53 53 53 53 52 51 51 50 49 48 46 45 43 42 41 40 39 37 36 34 33 32 32 30 29 29 28 28 27 27 27 26 25 24 24 24 24 24 23
49 50 50 50 50 50 49 48 47 46 45 44 43 42 41 40 39 38 37 36 35 33 32 31 30 30 29 27 27 27 26 25 25 25 24 23 22 22 22 22 22 21 21
Wind_Direction
216 218 221 225 230 239 246 252 258 265 272 278 284 290 295 298 301 304 305 307 309 311 313 313 312 312 313 312 310 308 306 303 299 296 294 290 286 282 277 274 270 266 263
227 229 232 235 240 247 252 257 262 267 273 278 283 287 291 294 297 299 301 304 306 308 309 310 311 310 311 311 310 308 307 304 302 299 296 293 289 285 281 277 272 268 265
236 238 241 244 248 252 257 262 266 270 274 278 282 285 289 292 295 297 299 303 304 306 307 308 309 309 310 310 310 309 307 305 303 301 298 295 291 287 284 280 275 271 268
244 246 248 252 255 258 262 265 268 271 275 279 282 285 288 291 294 296 298 301 303 304 305 307 308 308 309 309 309 309 308 306 304 302 299 296 293 289 285 282 278 275 271
249 251 253 257 260 262 265 267 270 274 277 279 282 285 288 290 293 295 297 299 301 303 304 305 306 306 307 308 308 308 308 307 305 304 301 298 294 290 287 283 280 277 274
254 256 258 261 263 265 267 269 272 275 278 281 283 285 287 289 292 294 295 298 300 301 302 303 304 305 306 307 307 307 307 307 306 304 302 299 296 292 289 285 282 279 276
260 262 264 265 266 267 269 272 274 277 279 282 283 285 287 289 291 293 295 297 298 300 302 303 304 304 305 306 307 306 306 306 305 303 302 299 297 294 291 287 284 281 277
265 266 267 268 269 270 272 274 276 278 280 283 285 287 289 290 292 293 295 297 297 298 300 302 302 303 304 305 305 305 305 305 304 303 300 298 296 294 292 289 286 282 278
267 268 268 269 270 272 273 275 276 278 281 283 285 287 289 290 291 293 295 296 297 297 299 300 301 301 302 303 304 304 303 303 303 302 300 297 295 293 291 289 286 283 280
268 268 269 270 271 272 274 276 277 279 281 284 285 287 289 290 291 293 294 296 296 296 297 298 299 299 300 302 303 302 302 302 301 301 299 297 295 293 291 289 287 284 280
268 270 269 269 272 274 276 276 278 280 283 285 286 288 289 290 291 293 293 295 296 296 297 298 298 298 299 300 301 302 301 301 300 299 298 296 294 292 290 288 286 284 281
272 273 273 272 273 275 278 279 280 283 285 287 288 288 290 292 292 292 293 293 294 295 296 297 297 298 298 299 301 301 301 299 298 298 297 296 294 292 289 287 285 282 280
271 272 273 274 275 276 278 280 282 284 285 286 288 289 290 291 292 292 293 293 294 294 295 296 297 297 297 298 300 300 300 299 298 297 296 294 293 291 289 287 286 283 280
272 272 274 275 277 279 280 282 283 285 286 287 288 289 291 292 292 292 292 292 293 294 296 297 297 296 296 297 298 299 299 298 297 296 294 293 291 290 289 287 286 284 281
273 275 276 278 279 280 280 281 283 285 286 287 289 289 291 291 291 291 292 293 293 294 295 295 295 295 295 296 296 297 296 296 295 294 292 291 290 288 286 286 285 284 281
276 277 278 279 280 281 282 283 284 285 286 287 288 289 290 291 291 291 292 292 292 293 294 294 294 294 294 294 295 295 295 294 293 292 290 289 288 287 285 284 284 283 282
277 278 279 280 281 281 282 283 285 286 287 288 289 289 290 290 290 290 291 291 292 293 293 293 293 293 293 293 293 293 293 292 291 290 287 286 285 285 284 283 283 281 280
279 280 281 282 283 284 285 286 287 288 289 290 290 290 290 290 291 291 291 291 292 292 292 292 292 292 292 292 291 291 290 289 288 287 286 285 284 283 282 282 281 279 278
283 284 284 285 286 287 287 288 289 289 289 290 290 290 290 290 290 291 291 292 292 291 291 291 291 291 291 291 290 289 288 287 286 285 284 283 282 281 280 280 280 279 278
284 285 286 286 287 288 288 289 289 289 290 290 290 290 291 291 291 291 291 291 291 291 291 290 290 290 290 290 289 288 286 285 283 281 281 281 280 279 278 278 278 278 277
286 287 288 288 289 289 289 290 290 290 290 290 290 291 291 291 291 291 291 291 290 290 290 289 289 288 287 287 287 285 283 282 281 279 279 279 278 278 277 277 277 276 275
287 287 288 289 289 290 290 290 291 291 291 291 291 291 291 291 291 291 291 290 290 290 289 287 286 285 285 284 284 283 281 280 280 278 276 275 276 276 276 275 274 274 273
288 288 289 290 291 291 292 292 292 292 292 292 292 292 292 292 291 291 291 291 290 289 288 286 285 284 283 283 281 279 278 278 277 274 272 273 273 273 273 272 272 272 272
290 291 291 292 292 292 292 292 292 293 293 293 293 293 293 293 292 292 292 290 289 289 287 286 285 283 282 281 279 277 276 276 275 273 271 272 272 270 268 269 270 271 272
292 293 293 293 294 294 294 294 293 294 294 294 294 294 294 294 293 293 293 291 289 288 287 286 284 282 281 279 278 276 276 275 274 273 272 271 270 269 267 267 268 269 269
294 295 295 295 295 296 295 295 295 295 295 295 295 295 295 294 294 294 293 291 289 288 286 284 283 282 279 278 276 275 274 274 275 275 271 268 267 265 267 268 266 267 268
Height
5864 5865 5866 5867 5868 5868 5869 5869 5869 5868 5868 5867 5866 5864 5863 5861 5860 5858 5856 5853 5851 5848 5845 5843 5840 5837 5833 5830 5827 5824 5820 5817 5814 5811 5808 5806 5804 5803 5802 5801 5800 5800 5800
5862 5863 5864 5864 5865 5865 5865 5865 5865 5865 5864 5863 5861 5860 5859 5857 5855 5853 5851 5848 5846 5843 5840 5837 5834 5831 5827 5824 5820 5817 5814 5810 5807 5804 5801 5798 5796 5794 5793 5792 5791 5790 5790
5859 5860 5861 5861 5861 5862 5862 5862 5861 5860 5859 5858 5857 5855 5854 5852 5850 5847 5845 5842 5840 5837 5834 5830 5827 5824 5821 5817 5813 5810 5806 5803 5800 5796 5793 5790 5787 5785 5783 5782 5781 5780 5780
5856 5856 5857 5857 5857 5857 5857 5857 5856 5855 5854 5853 5851 5849 5848 5846 5843 5841 5838 5836 5833 5830 5827 5824 5820 5817 5813 5810 5806 5802 5799 5795 5792 5788 5785 5782 5778 5776 5774 5772 5771 5770 5769
5851 5852 5852 5852 5852 5852 5852 5851 5850 5849 5848 5846 5845 5843 5841 5839 5837 5834 5831 5829 5826 5823 5819 5816 5813 5809 5806 5802 5798 5794 5790 5787 5783 5780 5776 5773 5769 5766 5764 5762 5761 5759 5758
5846 5847 5847 5847 5847 5846 5846 5845 5844 5843 5841 5840 5838 5836 5834 5832 5829 5827 5824 5821 5818 5815 5812 5808 5805 5801 5798 5794 5790 5786 5782 5778 5774 5771 5767 5763 5760 5757 5754 5752 5750 5749 5748
5841 5841 5841 5841 5841 5840 5839 5838 5837 5836 5834 5833 5831 5829 5826 5824 5822 5819 5816 5813 5810 5807 5803 5800 5796 5793 5789 5785 5781 5777 5773 5769 5765 5761 5757 5753 5750 5747 5744 5742 5740 5738 5737
5835 5835 5835 5834 5834 5833 5832 5831 5830 5828 5826 5825 5823 5821 5818 5816 5813 5810 5807 5804 5801 5798 5794 5791 5787 5783 5779 5776 5771 5767 5763 5759 5756 5751 5748 5744 5740 5737 5734 5731 5729 5727 5726
5828 5828 5827 5827 5826 5825 5824 5823 5821 5820 5818 5816 5814 5812 5810 5807 5804 5801 5798 5795 5791 5788 5785 5781 5777 5774 5770 5766 5762 5757 5753 5749 5745 5741 5737 5733 5730 5726 5723 5721 5718 5716 5715
5820 5819 5819 5818 5817 5816 5815 5814 5812 5811 5809 5807 5805 5803 5800 5798 5795 5791 5788 5785 5782 5778 5775 5771 5767 5764 5759 5755 5751 5747 5743 5738 5734 5730 5726 5723 5719 5716 5712 5709 5707 5705 5703
5812 5811 5810 5809 5808 5807 5805 5804 5803 5801 5800 5797 5795 5793 5790 5787 5784 5781 5777 5774 5770 5767 5763 5760 5756 5752 5748 5743 5739 5735 5731 5727 5723 5718 5714 5711 5707 5704 5701 5698 5696 5693 5692
5803 5802 5801 5800 5799 5798 5796 5795 5793 5791 5789 5787 5785 5782 5779 5776 5773 5770 5766 5763 5759 5755 5752 5748 5744 5740 5736 5731 5727 5723 5719 5715 5711 5707 5703 5699 5695 5692 5689 5687 5684 5682 5680
5794 5793 5792 5791 5790 5788 5787 5785 5783 5781 5778 5776 5773 5771 5768 5765 5761 5758 5754 5750 5746 5743 5739 5736 5732 5727 5723 5719 5715 5711 5706 5702 5698 5695 5691 5687 5683 5680 5677 5675 5672 5670 5668
5785 5784 5782 5781 5780 5778 5776 5774 5772 5769 5767 5764 5761 5759 5755 5752 5748 5745 5741 5737 5733 5730 5726 5722 5718 5713 5709 5705 5701 5697 5693 5689 5685 5682 5678 5674 5671 5668 5665 5662 5660 5658 5657
5775 5773 5772 5771 5769 5767 5765 5763 5761 5758 5755 5752 5749 5746 5742 5739 5735 5731 5727 5723 5720 5716 5712 5708 5704 5700 5696 5692 5688 5684 5680 5676 5672 5669 5665 5661 5658 5655 5653 5650 5648 5646 5644
5764 5763 5761 5759 5757 5755 5753 5751 5748 5746 5743 5739 5736 5732 5729 5725 5721 5717 5713 5709 5705 5700 5696 5693 5689 5685 5681 5677 5673 5669 5665 5662 5658 5655 5652 5649 5646 5643 5640 5638 5636 5634 5632
5753 5752 5750 5748 5745 5743 5741 5738 5735 5732 5728 5725 5721 5717 5714 5710 5706 5702 5698 5693 5689 5684 5680 5677 5673 5669 5666 5661 5658 5654 5651 5647 5644 5641 5638 5636 5633 5630 5628 5626 5624 5622 5621
5742 5740 5738 5735 5733 5730 5727 5724 5721 5717 5714 5710 5706 5702 5698 5694 5689 5685 5681 5676 5672 5668 5664 5660 5656 5653 5649 5646 5642 5639 5636 5633 5630 5627 5625 5622 5620 5618 5616 5614 5612 5611 5609
5731 5728 5726 5723 5720 5717 5713 5710 5706 5702 5698 5694 5690 5685 5681 5676 5672 5667 5662 5658 5654 5650 5647 5643 5640 5636 5633 5630 5626 5623 5621 5618 5616 5613 5611 5610 5608 5606 5604 5602 5601 5599 5598
5718 5716 5713 5709 5706 5703 5699 5695 5691 5686 5682 5677 5673 5668 5663 5658 5654 5650 5645 5641 5637 5633 5630 5626 5623 5620 5617 5614 5611 5608 5606 5604 5602 5600 5599 5597 5595 5594 5592 5591 5590 5588 5587
5705 5702 5699 5695 5692 5688 5683 5679 5674 5670 5665 5660 5655 5650 5645 5640 5636 5632 5628 5624 5620 5616 5613 5610 5607 5604 5601 5599 5596 5594 5592 5590 5589 5587 5586 5585 5583 5582 5581 5580 5579 5577 5576
5692 5688 5684 5680 5676 5672 5667 5663 5658 5653 5648 5643 5637 5632 5627 5623 5618 5614 5611 5607 5603 5599 5597 5594 5591 5588 5586 5584 5582 5580 5579 5577 5576 5575 5574 5573 5572 5571 5570 5569 5568 5567 5566
5677 5673 5669 5665 5660 5655 5651 5646 5641 5635 5630 5625 5620 5615 5610 5605 5601 5597 5594 5590 5586 5583 5580 5577 5575 5574 5572 5570 5568 5567 5566 5565 5564 5563 5562 5562 5561 5560 5560 5559 5559 5558 5557
5662 5657 5653 5648 5644 5639 5634 5628 5623 5618 5613 5608 5603 5598 5593 5589 5585 5581 5578 5575 5572 5569 5566 5563 5562 5560 5559 5557 5556 5555 5555 5554 5552 5552 5551 5551 5550 5550 5550 5549 5549 5548 5548
5646 5641 5637 5632 5627 5622 5617 5612 5607 5602 5597 5592 5587 5583 5578 5574 5571 5568 5564 5561 5559 5556 5553 5551 5550 5548 5547 5546 5545 5545 5544 5543 5542 5541 5541 5541 5541 5540 5540 5540 5540 5540 5539
5630 5626 5621 5616 5611 5606 5601 5596 5592 5587 5582 5578 5573 5569 5565 5562 5558 5555 5552 5549 5546 5544 5542 5540 5539 5537 5536 5536 5535 5535 5534 5533 5533 5532 5531 5532 5532 5532 5532 5532 5532 5532 5531